timestamp,wind_dir_avg,wind_spd_avg,wind_spd_max_dir,wind_spd_gust,battery_voltage,lat,long
2020-12-12 00:04:01+00:00,319.0,7.74,320.0,9.08,12.49,47.59359,-54.27349
2020-12-12 00:14:01+00:00,310.0,6.5,323.0,8.04,12.49,47.59359,-54.27349
2020-12-12 00:24:01+00:00,319.0,5.75,315.0,6.9,12.49,47.59359,-54.27349
2020-12-12 00:34:01+00:00,303.0,6.14,310.0,7.36,12.49,47.59359,-54.27349
2020-12-12 00:44:01+00:00,311.0,5.97,302.0,6.83,12.49,47.59359,-54.27349
2020-12-12 00:54:01+00:00,308.0,5.77,316.0,6.51,12.49,47.59359,-54.27349
2020-12-12 01:04:01+00:00,303.0,7.09,307.0,9.21,12.49,47.59359,-54.27349
2020-12-12 01:14:01+00:00,316.0,8.96,322.0,10.06,12.49,47.59359,-54.27349
2020-12-12 01:24:01+00:00,329.0,8.54,324.0,10.07,12.49,47.59359,-54.27349
2020-12-12 01:34:01+00:00,308.0,7.14,310.0,8.11,12.49,47.59359,-54.27349
2020-12-12 01:44:01+00:00,299.0,5.89,303.0,7.07,12.49,47.59359,-54.27349
2020-12-12 01:54:01+00:00,304.0,5.39,306.0,6.25,12.49,47.59359,-54.27349
2020-12-12 02:04:01+00:00,299.0,6.25,305.0,6.96,12.49,47.59359,-54.27349
2020-12-12 02:14:01+00:00,294.0,6.36,293.0,7.45,12.49,47.59359,-54.27349
2020-12-12 02:24:01+00:00,291.0,6.93,295.0,8.49,12.49,47.59359,-54.27349
2020-12-12 02:34:01+00:00,290.0,7.07,291.0,8.09,12.49,47.59359,-54.27349
2020-12-12 02:44:01+00:00,297.0,8.2,299.0,9.16,12.49,47.59359,-54.27349
2020-12-12 02:54:01+00:00,301.0,7.73,300.0,8.5,12.49,47.59359,-54.27349
2020-12-12 03:04:01+00:00,305.0,7.68,309.0,9.17,12.49,47.59359,-54.27349
2020-12-12 03:14:01+00:00,309.0,7.66,311.0,9.78,12.41,47.59359,-54.27349
2020-12-12 03:24:01+00:00,320.0,7.86,322.0,8.94,12.41,47.59359,-54.27349
2020-12-12 03:34:01+00:00,314.0,7.81,315.0,9.3,12.41,47.59359,-54.27349
2020-12-12 03:44:01+00:00,313.0,6.35,317.0,8.0,12.41,47.59359,-54.27349
2020-12-12 03:54:01+00:00,311.0,6.94,313.0,9.46,12.41,47.59359,-54.27349
2020-12-12 04:04:01+00:00,301.0,7.28,305.0,9.14,12.41,47.59359,-54.27349
2020-12-12 04:14:01+00:00,300.0,7.35,297.0,8.41,12.41,47.59359,-54.27349
2020-12-12 04:24:01+00:00,301.0,6.35,300.0,7.41,12.41,47.59359,-54.27349
2020-12-12 04:34:01+00:00,305.0,5.18,305.0,6.61,12.41,47.59359,-54.27349
2020-12-12 04:44:01+00:00,282.0,4.21,285.0,5.46,12.41,47.59359,-54.27349
2020-12-12 04:54:01+00:00,266.0,3.9,262.0,4.57,12.41,47.59359,-54.27349
2020-12-12 05:04:01+00:00,296.0,3.93,298.0,5.57,12.41,47.59359,-54.27349
2020-12-12 05:14:01+00:00,289.0,5.39,290.0,6.5,12.41,47.59359,-54.27349
2020-12-12 05:24:01+00:00,290.0,5.22,287.0,6.56,12.41,47.59359,-54.27349
2020-12-12 05:34:01+00:00,289.0,6.27,289.0,7.55,12.41,47.59359,-54.27349
2020-12-12 05:44:01+00:00,301.0,4.94,301.0,6.08,12.41,47.59359,-54.27349
2020-12-12 05:54:01+00:00,307.0,6.45,306.0,8.01,12.41,47.59359,-54.27349
2020-12-12 06:04:01+00:00,298.0,4.69,296.0,5.36,12.41,47.59359,-54.27349
2020-12-12 06:14:01+00:00,304.0,5.31,305.0,6.1,12.41,47.59359,-54.27349
2020-12-12 06:24:01+00:00,306.0,3.58,310.0,4.38,12.41,47.59359,-54.27349
2020-12-12 06:34:01+00:00,300.0,4.5,301.0,5.34,12.41,47.59359,-54.27349
2020-12-12 06:44:01+00:00,291.0,5.83,292.0,7.16,12.41,47.59359,-54.27349
2020-12-12 06:54:01+00:00,284.0,5.29,290.0,5.78,12.41,47.59359,-54.27349
2020-12-12 07:04:01+00:00,278.0,5.82,272.0,6.95,12.41,47.59359,-54.27349
2020-12-12 07:14:01+00:00,274.0,4.83,272.0,5.47,12.33,47.59359,-54.27349
2020-12-12 07:24:01+00:00,265.0,5.61,263.0,6.51,12.33,47.59359,-54.27349
2020-12-12 07:34:01+00:00,278.0,6.87,274.0,7.98,12.33,47.59359,-54.27349
2020-12-12 07:44:01+00:00,272.0,8.32,272.0,9.34,12.33,47.59359,-54.27349
2020-12-12 07:54:01+00:00,280.0,9.43,282.0,10.43,12.33,47.59359,-54.27349
2020-12-12 08:04:01+00:00,275.0,8.35,278.0,9.22,12.33,47.59359,-54.27349
2020-12-12 08:14:01+00:00,281.0,7.83,284.0,8.59,12.33,47.59359,-54.27349
2020-12-12 08:24:01+00:00,278.0,7.19,280.0,8.27,12.33,47.59359,-54.27349
2020-12-12 08:34:01+00:00,278.0,7.04,286.0,7.73,12.33,47.59359,-54.27349
2020-12-12 08:44:01+00:00,282.0,6.2,282.0,7.14,12.33,47.59359,-54.27349
2020-12-12 08:54:01+00:00,287.0,6.48,290.0,7.21,12.33,47.59359,-54.27349
2020-12-12 09:04:01+00:00,283.0,6.17,283.0,7.47,12.33,47.59359,-54.27349
2020-12-12 09:14:01+00:00,281.0,5.35,280.0,6.36,12.25,47.59359,-54.27349
2020-12-12 09:24:01+00:00,291.0,5.86,291.0,6.63,12.25,47.59359,-54.27349
2020-12-12 09:34:01+00:00,289.0,5.98,286.0,6.6,12.25,47.59359,-54.27349
2020-12-12 09:44:01+00:00,283.0,5.9,282.0,6.85,12.25,47.59359,-54.27349
2020-12-12 09:54:01+00:00,269.0,6.25,268.0,8.11,12.25,47.59359,-54.27349
2020-12-12 10:04:01+00:00,269.0,5.56,271.0,6.38,12.25,47.59359,-54.27349
2020-12-12 10:14:01+00:00,273.0,5.37,275.0,6.13,12.33,47.59359,-54.27349
2020-12-12 10:24:01+00:00,278.0,5.29,282.0,5.75,12.33,47.59359,-54.27349
2020-12-12 10:34:01+00:00,264.0,5.26,263.0,6.27,12.33,47.59359,-54.27349
2020-12-12 10:44:01+00:00,276.0,5.24,289.0,6.15,12.33,47.59359,-54.27349
2020-12-12 10:54:01+00:00,270.0,6.04,268.0,6.95,12.33,47.59359,-54.27349
2020-12-12 11:04:01+00:00,280.0,5.86,284.0,6.59,12.33,47.59359,-54.27349
2020-12-12 11:14:01+00:00,266.0,6.26,265.0,7.2,12.25,47.59359,-54.27349
2020-12-12 11:24:01+00:00,276.0,6.07,277.0,7.42,12.25,47.59359,-54.27349
2020-12-12 11:34:01+00:00,269.0,6.63,269.0,7.38,12.25,47.59359,-54.27349
2020-12-12 11:44:01+00:00,277.0,6.04,277.0,6.61,12.25,47.59359,-54.27349
2020-12-12 11:54:01+00:00,276.0,6.0,277.0,6.81,12.25,47.59359,-54.27349
2020-12-12 12:04:01+00:00,280.0,5.93,281.0,7.29,12.25,47.59359,-54.27349
2020-12-12 12:14:01+00:00,279.0,6.25,274.0,7.27,12.41,47.59359,-54.27349
2020-12-12 12:24:01+00:00,273.0,6.33,274.0,7.51,12.41,47.59359,-54.27349
2020-12-12 12:34:01+00:00,276.0,6.22,268.0,7.32,12.41,47.59359,-54.27349
2020-12-12 12:44:01+00:00,283.0,7.1,288.0,7.68,12.41,47.59359,-54.27349
2020-12-12 12:54:01+00:00,279.0,6.29,286.0,7.08,12.41,47.59359,-54.27349
2020-12-12 13:04:01+00:00,287.0,5.44,286.0,6.18,12.41,47.59359,-54.27349
2020-12-12 15:14:01+00:00,306.0,6.49,310.0,7.42,13.68,47.59359,-54.27349
2020-12-12 15:24:01+00:00,317.0,5.82,316.0,6.74,13.68,47.59359,-54.27349
2020-12-12 15:34:01+00:00,303.0,6.84,309.0,8.04,13.68,47.59359,-54.27349
2020-12-12 15:44:01+00:00,296.0,7.58,300.0,8.24,13.68,47.59359,-54.27349
2020-12-12 15:54:01+00:00,317.0,6.75,312.0,7.53,13.68,47.59359,-54.27349
2020-12-12 16:04:01+00:00,301.0,6.01,303.0,6.89,13.68,47.59359,-54.27349
2020-12-12 16:14:01+00:00,294.0,6.04,294.0,7.58,14.32,47.59359,-54.27349
2020-12-12 16:24:01+00:00,310.0,4.02,324.0,5.15,14.32,47.59359,-54.27349
2020-12-12 16:34:01+00:00,299.0,6.75,299.0,7.6,14.32,47.59359,-54.27349
2020-12-12 16:44:01+00:00,290.0,5.07,309.0,6.43,14.32,47.59359,-54.27349
2020-12-12 16:54:01+00:00,286.0,6.51,299.0,7.67,14.32,47.59359,-54.27349
2020-12-12 17:04:01+00:00,313.0,5.31,317.0,6.5,14.32,47.59359,-54.27349
2020-12-12 17:14:01+00:00,307.0,5.39,316.0,6.38,13.92,47.59359,-54.27349
2020-12-12 17:24:01+00:00,308.0,5.07,314.0,5.98,13.92,47.59359,-54.27349
2020-12-12 17:34:01+00:00,302.0,3.36,306.0,4.58,13.92,47.59359,-54.27349
2020-12-12 17:44:01+00:00,293.0,3.12,299.0,3.44,13.92,47.59359,-54.27349
2020-12-12 17:54:01+00:00,294.0,3.11,285.0,3.35,13.92,47.59359,-54.27349
2020-12-12 18:04:01+00:00,287.0,5.49,279.0,7.21,13.92,47.59359,-54.27349
2020-12-12 18:14:01+00:00,284.0,5.78,283.0,6.68,14.32,47.59359,-54.27349
2020-12-12 18:24:01+00:00,316.0,5.93,310.0,6.69,14.32,47.59359,-54.27349
2020-12-12 18:34:01+00:00,297.0,5.29,294.0,6.03,14.32,47.59359,-54.27349
2020-12-12 18:44:01+00:00,285.0,4.87,284.0,5.81,14.32,47.59359,-54.27349
2020-12-12 18:54:01+00:00,273.0,5.61,276.0,6.43,14.32,47.59359,-54.27349
2020-12-12 19:04:01+00:00,264.0,5.72,263.0,6.28,14.32,47.59359,-54.27349
2020-12-12 19:14:01+00:00,259.0,5.33,258.0,5.92,13.6,47.59359,-54.27349
2020-12-12 19:24:01+00:00,285.0,4.68,286.0,5.36,13.6,47.59359,-54.27349
2020-12-12 19:34:01+00:00,270.0,4.7,275.0,5.52,13.6,47.59359,-54.27349
2020-12-12 19:44:01+00:00,271.0,5.17,274.0,5.8,13.6,47.59359,-54.27349
2020-12-12 19:54:01+00:00,279.0,4.32,280.0,5.05,13.6,47.59359,-54.27349
2020-12-12 20:04:01+00:00,282.0,4.87,285.0,5.38,13.6,47.59359,-54.27349
2020-12-12 20:14:01+00:00,274.0,4.72,276.0,5.12,12.73,47.59359,-54.27349
2020-12-12 20:24:01+00:00,281.0,4.99,283.0,5.75,12.73,47.59359,-54.27349
2020-12-12 20:34:01+00:00,284.0,5.0,288.0,5.9,12.73,47.59359,-54.27349
2020-12-12 20:44:01+00:00,279.0,5.81,280.0,6.32,12.73,47.59359,-54.27349
2020-12-12 20:54:01+00:00,277.0,5.82,280.0,6.27,12.73,47.59359,-54.27349
2020-12-12 21:04:01+00:00,281.0,5.63,284.0,6.43,12.73,47.59359,-54.27349
2020-12-12 21:14:01+00:00,281.0,5.96,283.0,6.62,12.65,47.59359,-54.27349
2020-12-12 21:24:01+00:00,281.0,5.87,281.0,6.2,12.65,47.59359,-54.27349
2020-12-12 21:34:01+00:00,273.0,5.71,272.0,6.15,12.65,47.59359,-54.27349
2020-12-12 21:44:01+00:00,282.0,5.14,280.0,5.87,12.65,47.59359,-54.27349
2020-12-12 21:54:01+00:00,281.0,4.67,280.0,5.44,12.65,47.59359,-54.27349
2020-12-12 22:04:01+00:00,283.0,5.39,286.0,5.98,12.65,47.59359,-54.27349
2020-12-12 22:14:01+00:00,271.0,4.97,270.0,5.36,12.57,47.59359,-54.27349
2020-12-12 22:24:01+00:00,264.0,5.16,262.0,5.76,12.57,47.59359,-54.27349
2020-12-12 22:34:01+00:00,278.0,5.28,280.0,5.96,12.57,47.59359,-54.27349
2020-12-12 22:44:01+00:00,275.0,5.14,279.0,5.69,12.57,47.59359,-54.27349
2020-12-12 22:54:01+00:00,280.0,4.34,279.0,5.03,12.57,47.59359,-54.27349
2020-12-12 23:04:01+00:00,276.0,4.68,265.0,5.43,12.57,47.59359,-54.27349
2020-12-12 23:14:01+00:00,266.0,4.67,268.0,5.24,12.57,47.59359,-54.27349
2020-12-12 23:24:01+00:00,268.0,5.76,270.0,8.11,12.57,47.59359,-54.27349
2020-12-12 23:34:01+00:00,266.0,5.18,266.0,5.82,12.57,47.59359,-54.27349
2020-12-12 23:44:01+00:00,271.0,5.4,268.0,7.07,12.57,47.59359,-54.27349
2020-12-12 23:54:01+00:00,273.0,5.6,279.0,6.1,12.57,47.59359,-54.27349
